| time (UTC) | temp C | wind direction | speed KPH | gust KPH | rain 1hr cm | rain 24hr cm | rain mn cm | humidity % | barometer mb |
| 20260506135733 | 12 | 90 | 1.6 | 6.4 | 0.00 | 0.00 | 0.00 | 66 | 1012.3 |
| 20260506135235 | 12 | 355 | 1.6 | 6.4 | 0.00 | 0.00 | 0.00 | 65 | 1012.3 |
| 20260506134731 | 12 | 169 | 1.6 | 6.4 | 0.00 | 0.00 | 0.00 | 66 | 1012.4 |
| 20260506134232 | 12 | 300 | 1.6 | 6.4 | 0.00 | 0.00 | 0.00 | 66 | 1012.3 |
| 20260506133731 | 12 | 280 | 1.6 | 4.8 | 0.00 | 0.00 | 0.00 | 67 | 1012.5 |
| 20260506133231 | 12 | 215 | 1.6 | 4.8 | 0.00 | 0.00 | 0.00 | 67 | 1012.4 |
| 20260506132731 | 12 | 31 | 1.6 | 4.8 | 0.00 | 0.00 | 0.00 | 68 | 1012.4 |
| 20260506132232 | 12 | 213 | 1.6 | 8.0 | 0.00 | 0.00 | 0.00 | 68 | 1012.4 |
| 20260506131732 | 12 | 5 | 1.6 | 8.0 | 0.00 | 0.00 | 0.00 | 70 | 1012.4 |
| 20260506131231 | 11 | 313 | 1.6 | 4.8 | 0.00 | 0.00 | 0.00 | 70 | 1012.5 |
| 20260506130733 | 11 | 276 | 1.6 | 4.8 | 0.00 | 0.00 | 0.00 | 70 | 1012.4 |
| 20260506130234 | 12 | 266 | 1.6 | 3.2 | 0.00 | 0.00 | 0.00 | 70 | 1012.4 |
| 20260506130012 | 12 | 263 | 1.6 | 3.2 | 0.00 | 0.00 | 0.00 | 70 | 1012.5 |
| 20260506125231 | 12 | 93 | 1.6 | 4.8 | 0.00 | 0.00 | 0.00 | 71 | 1012.5 |
| 20260506124734 | 12 | 49 | 1.6 | 4.8 | 0.00 | 0.00 | 0.00 | 71 | 1012.5 |
| 20260506124231 | 12 | 211 | 1.6 | 4.8 | 0.00 | 0.00 | 0.00 | 70 | 1012.5 |
| 20260506123732 | 12 | 19 | 1.6 | 4.8 | 0.00 | 0.00 | 0.00 | 70 | 1012.5 |
| 20260506123506 | 12 | 220 | 1.6 | 4.8 | 0.00 | 0.00 | 0.00 | 70 | 1012.5 |
| 20260506122731 | 12 | 294 | 0.0 | 6.4 | 0.00 | 0.00 | 0.00 | 72 | 1012.5 |
| 20260506122233 | 11 | 187 | 1.6 | 14.5 | 0.00 | 0.00 | 0.00 | 71 | 1012.5 |
| 20260506121733 | 11 | 269 | 1.6 | 14.5 | 0.00 | 0.00 | 0.00 | 71 | 1012.5 |
| 20260506121231 | 11 | 262 | 1.6 | 4.8 | 0.00 | 0.00 | 0.00 | 72 | 1012.5 |
| 20260506120732 | 11 | 249 | 1.6 | 4.8 | 0.00 | 0.00 | 0.00 | 73 | 1012.6 |
| 20260506120233 | 11 | 215 | 1.6 | 4.8 | 0.00 | 0.00 | 0.00 | 74 | 1012.5 |
| 20260506115729 | 11 | 271 | 1.6 | 4.8 | 0.00 | 0.00 | 0.00 | 73 | 1012.6 |
| 20260506115230 | 11 | 214 | 1.6 | 4.8 | 0.00 | 0.00 | 0.00 | 73 | 1012.6 |
| 20260506114730 | 11 | 245 | 1.6 | 4.8 | 0.00 | 0.00 | 0.00 | 74 | 1012.6 |
| 20260506114230 | 11 | 245 | 1.6 | 6.4 | 0.00 | 0.00 | 0.00 | 74 | 1012.6 |
| 20260506113727 | 11 | 271 | 1.6 | 6.4 | 0.00 | 0.00 | 0.00 | 75 | 1012.6 |
| 20260506113229 | 11 | 327 | 1.6 | 6.4 | 0.00 | 0.00 | 0.00 | 75 | 1012.5 |
| 20260506112726 | 11 | 235 | 1.6 | 8.0 | 0.00 | 0.00 | 0.00 | 74 | 1012.6 |
| 20260506112225 | 11 | 233 | 1.6 | 8.0 | 0.00 | 0.00 | 0.00 | 73 | 1012.6 |
| 20260506111727 | 11 | 287 | 1.6 | 16.1 | 0.00 | 0.00 | 0.00 | 72 | 1012.6 |
| 20260506111225 | 11 | 12 | 1.6 | 16.1 | 0.00 | 0.00 | 0.00 | 72 | 1012.6 |
| 20260506110726 | 11 | 309 | 1.6 | 4.8 | 0.00 | 0.00 | 0.00 | 73 | 1012.6 |
| 20260506110224 | 11 | 30 | 1.6 | 8.0 | 0.00 | 0.00 | 0.00 | 73 | 1012.6 |
| 20260506105725 | 11 | 347 | 1.6 | 8.0 | 0.00 | 0.00 | 0.00 | 72 | 1012.6 |
| 20260506105225 | 11 | 241 | 1.6 | 6.4 | 0.00 | 0.00 | 0.00 | 73 | 1012.7 |
| 20260506105005 | 11 | 213 | 1.6 | 6.4 | 0.00 | 0.00 | 0.00 | 73 | 1012.7 |
| 20260506104225 | 11 | 355 | 1.6 | 6.4 | 0.00 | 0.00 | 0.00 | 73 | 1012.6 |
| 20260506104004 | 11 | 274 | 1.6 | 6.4 | 0.00 | 0.00 | 0.00 | 73 | 1012.7 |
| 20260506103224 | 11 | 258 | 3.2 | 6.4 | 0.00 | 0.00 | 0.00 | 72 | 1012.7 |
| 20260506102723 | 11 | 31 | 1.6 | 8.0 | 0.00 | 0.00 | 0.00 | 73 | 1012.7 |
| 20260506102224 | 11 | 62 | 1.6 | 8.0 | 0.00 | 0.00 | 0.00 | 73 | 1012.6 |
| 20260506101723 | 11 | 241 | 3.2 | 6.4 | 0.00 | 0.00 | 0.00 | 73 | 1012.5 |
| 20260506101223 | 11 | 247 | 1.6 | 6.4 | 0.00 | 0.00 | 0.00 | 74 | 1012.5 |
| 20260506100721 | 11 | 56 | 1.6 | 6.4 | 0.00 | 0.00 | 0.00 | 74 | 1012.5 |
| 20260506100222 | 11 | 266 | 1.6 | 8.0 | 0.00 | 0.00 | 0.00 | 73 | 1012.6 |
| 20260506095721 | 11 | 236 | 3.2 | 8.0 | 0.00 | 0.00 | 0.00 | 72 | 1012.6 |
| 20260506095222 | 11 | 222 | 1.6 | 8.0 | 0.00 | 0.00 | 0.00 | 73 | 1012.6 |
| 20260506094720 | 11 | 5 | 1.6 | 8.0 | 0.00 | 0.00 | 0.00 | 73 | 1012.5 |
| 20260506094217 | 11 | 71 | 3.2 | 8.0 | 0.00 | 0.00 | 0.00 | 72 | 1012.5 |
| 20260506093716 | 11 | 259 | 1.6 | 6.4 | 0.00 | 0.00 | 0.00 | 72 | 1012.5 |
| 20260506093456 | 11 | 272 | 1.6 | 6.4 | 0.00 | 0.00 | 0.00 | 73 | 1012.5 |
| 20260506092714 | 11 | 211 | 1.6 | 6.4 | 0.00 | 0.00 | 0.00 | 72 | 1012.5 |
| 20260506092214 | 10 | 229 | 1.6 | 6.4 | 0.00 | 0.00 | 0.00 | 74 | 1012.4 |
| 20260506091714 | 10 | 42 | 1.6 | 6.4 | 0.00 | 0.00 | 0.00 | 73 | 1012.5 |
| 20260506091216 | 10 | 5 | 1.6 | 4.8 | 0.00 | 0.00 | 0.00 | 73 | 1012.5 |
| 20260506090714 | 10 | 5 | 1.6 | 4.8 | 0.00 | 0.00 | 0.00 | 72 | 1012.4 |
| 20260506090214 | 10 | 266 | 1.6 | 6.4 | 0.00 | 0.00 | 0.00 | 72 | 1012.4 |
| 20260506085713 | 11 | 244 | 1.6 | 6.4 | 0.00 | 0.00 | 0.00 | 72 | 1012.4 |
| 20260506085217 | 11 | 219 | 1.6 | 6.4 | 0.00 | 0.00 | 0.00 | 71 | 1012.4 |
| 20260506084713 | 11 | 304 | 1.6 | 11.3 | 0.00 | 0.00 | 0.00 | 71 | 1012.4 |
| 20260506084215 | 11 | 248 | 1.6 | 11.3 | 0.00 | 0.00 | 0.00 | 72 | 1012.3 |
| 20260506083713 | 10 | 248 | 1.6 | 6.4 | 0.00 | 0.00 | 0.00 | 72 | 1012.4 |
| 20260506083213 | 10 | 267 | 1.6 | 8.0 | 0.00 | 0.00 | 0.00 | 74 | 1012.4 |
| 20260506082713 | 10 | 186 | 1.6 | 8.0 | 0.00 | 0.00 | 0.00 | 74 | 1012.4 |
| 20260506082212 | 10 | 279 | 1.6 | 4.8 | 0.00 | 0.00 | 0.00 | 74 | 1012.5 |
| 20260506081713 | 10 | 159 | 1.6 | 6.4 | 0.00 | 0.00 | 0.00 | 75 | 1012.4 |
| 20260506081215 | 10 | 198 | 1.6 | 6.4 | 0.00 | 0.00 | 0.00 | 75 | 1012.4 |
| 20260506080713 | 9 | 214 | 1.6 | 8.0 | 0.00 | 0.00 | 0.00 | 78 | 1012.4 |
| 20260506080212 | 9 | 210 | 1.6 | 8.0 | 0.00 | 0.00 | 0.00 | 77 | 1012.4 |
| 20260506073204 | 9 | 201 | 1.6 | 6.4 | 0.00 | 0.00 | 0.00 | 76 | 1012.4 |
| 20260506072705 | 9 | 316 | 1.6 | 6.4 | 0.00 | 0.00 | 0.00 | 77 | 1012.3 |
| 20260506072202 | 9 | 264 | 1.6 | 6.4 | 0.00 | 0.00 | 0.00 | 78 | 1012.3 |
| 20260506071734 | 9 | 322 | 0.0 | 8.0 | 0.00 | 0.00 | 0.00 | 79 | 1012.2 |
| 20260506071725 | 9 | 283 | 0.0 | 8.0 | 0.00 | 0.00 | 0.00 | 79 | 1012.2 |
| 20260506070943 | 8 | 279 | 1.6 | 6.4 | 0.00 | 0.00 | 0.00 | 80 | 1012.2 |
| 20260506070202 | 8 | 330 | 1.6 | 3.2 | 0.00 | 0.00 | 0.00 | 80 | 1012.2 |
| 20260506062202 | 7 | 200 | 1.6 | 4.8 | 0.00 | 0.00 | 0.00 | 83 | 1012.0 |
| 20260506061702 | 7 | 280 | 1.6 | 4.8 | 0.00 | 0.00 | 0.00 | 84 | 1012.0 |
| 20260506061204 | 7 | 264 | 1.6 | 4.8 | 0.00 | 0.00 | 0.00 | 85 | 1012.0 |
| 20260506060704 | 7 | 94 | 0.0 | 4.8 | 0.00 | 0.00 | 0.00 | 86 | 1011.9 |
| 20260506060203 | 7 | 235 | 1.6 | 4.8 | 0.00 | 0.00 | 0.00 | 86 | 1011.9 |
| 20260506051205 | 6 | 181 | 1.6 | 3.2 | 0.00 | 0.00 | 0.00 | 85 | 1011.8 |
| 20260506050703 | 6 | 223 | 1.6 | 3.2 | 0.00 | 0.00 | 0.00 | 85 | 1011.8 |
| 20260506050203 | 7 | 223 | 0.0 | 3.2 | 0.00 | 0.00 | 0.00 | 85 | 1011.8 |
| 20260506044705 | 7 | 309 | 0.0 | 1.6 | 0.00 | 0.00 | 0.00 | 84 | 1011.8 |
| 20260506044207 | 7 | 309 | 0.0 | 1.6 | 0.00 | 0.00 | 0.00 | 84 | 1011.8 |
| 20260506043704 | 7 | 309 | 0.0 | 1.6 | 0.00 | 0.00 | 0.00 | 84 | 1011.8 |
| 20260506043203 | 7 | 234 | 0.0 | 1.6 | 0.00 | 0.00 | 0.00 | 84 | 1011.9 |
| 20260506042702 | 7 | 234 | 0.0 | 1.6 | 0.00 | 0.00 | 0.00 | 84 | 1011.9 |
| 20260506042204 | 7 | 234 | 0.0 | 3.2 | 0.00 | 0.00 | 0.00 | 83 | 1011.9 |
| 20260506041701 | 7 | 234 | 0.0 | 3.2 | 0.00 | 0.00 | 0.00 | 83 | 1011.9 |
| 20260506041155 | 7 | 225 | 0.0 | 3.2 | 0.00 | 0.00 | 0.00 | 84 | 1011.9 |
| 20260506040650 | 7 | 214 | 0.0 | 3.2 | 0.00 | 0.00 | 0.00 | 83 | 1011.9 |
| 20260506040143 | 7 | 205 | 0.0 | 3.2 | 0.00 | 0.00 | 0.00 | 83 | 1011.9 |
| 20260506035637 | 7 | 205 | 0.0 | 4.8 | 0.00 | 0.00 | 0.00 | 83 | 1011.8 |
| 20260506035416 | 7 | 202 | 0.0 | 4.8 | 0.00 | 0.00 | 0.00 | 83 | 1011.9 |
| 20260506034639 | 7 | 109 | 0.0 | 3.2 | 0.00 | 0.00 | 0.00 | 83 | 1011.9 |
| 20260506034137 | 7 | 250 | 0.0 | 3.2 | 0.00 | 0.00 | 0.00 | 83 | 1011.9 |
| 20260506033635 | 7 | 250 | 0.0 | 1.6 | 0.00 | 0.00 | 0.00 | 83 | 1011.9 |
| 20260506033134 | 7 | 250 | 0.0 | 3.2 | 0.00 | 0.00 | 0.00 | 83 | 1011.9 |
| 20260506032634 | 7 | 250 | 0.0 | 3.2 | 0.00 | 0.00 | 0.00 | 83 | 1011.9 |
| 20260506032133 | 8 | 131 | 0.0 | 4.8 | 0.00 | 0.00 | 0.00 | 83 | 1011.9 |
| 20260506031634 | 8 | 131 | 0.0 | 4.8 | 0.00 | 0.00 | 0.00 | 83 | 1011.9 |
| 20260506031132 | 8 | 81 | 0.0 | 3.2 | 0.00 | 0.00 | 0.00 | 83 | 1011.9 |
| 20260506030631 | 8 | 244 | 0.0 | 4.8 | 0.00 | 0.00 | 0.00 | 83 | 1011.9 |
| 20260506030131 | 8 | 279 | 0.0 | 4.8 | 0.00 | 0.00 | 0.00 | 83 | 1011.9 |
| 20260506025633 | 8 | 279 | 0.0 | 4.8 | 0.00 | 0.00 | 0.00 | 83 | 1012.0 |
| 20260506025132 | 8 | 40 | 0.0 | 4.8 | 0.00 | 0.00 | 0.00 | 83 | 1012.0 |
| 20260506024630 | 8 | 248 | 0.0 | 3.2 | 0.00 | 0.00 | 0.00 | 83 | 1012.0 |
| 20260506024410 | 8 | 77 | 0.0 | 3.2 | 0.00 | 0.00 | 0.00 | 83 | 1012.0 |
| 20260506023631 | 8 | 245 | 0.0 | 3.2 | 0.00 | 0.00 | 0.00 | 82 | 1012.0 |
| 20260506023129 | 8 | 76 | 1.6 | 4.8 | 0.00 | 0.00 | 0.00 | 82 | 1012.2 |
| 20260506022925 | 8 | 187 | 0.0 | 6.4 | 0.00 | 0.00 | 0.00 | 82 | 1012.1 |
| 20260506022921 | 8 | 254 | 1.6 | 6.4 | 0.00 | 0.00 | 0.00 | 82 | 1012.2 |
| 20260506021617 | 8 | 311 | 0.0 | 3.2 | 0.00 | 0.00 | 0.00 | 82 | 1012.2 |
| 20260506021115 | 8 | 285 | 0.0 | 3.2 | 0.00 | 0.00 | 0.00 | 82 | 1012.2 |
| 20260506020611 | 8 | 304 | 0.0 | 3.2 | 0.00 | 0.00 | 0.00 | 82 | 1012.1 |
| 20260506020112 | 8 | 304 | 0.0 | 3.2 | 0.00 | 0.00 | 0.00 | 82 | 1012.2 |
| 20260506015611 | 8 | 315 | 0.0 | 3.2 | 0.00 | 0.00 | 0.00 | 82 | 1012.1 |
| 20260506015111 | 8 | 321 | 0.0 | 3.2 | 0.00 | 0.00 | 0.00 | 82 | 1012.2 |
| 20260506014608 | 8 | 270 | 0.0 | 4.8 | 0.00 | 0.00 | 0.00 | 81 | 1012.2 |
| 20260506014107 | 8 | 250 | 0.0 | 4.8 | 0.00 | 0.00 | 0.00 | 81 | 1012.3 |
| 20260506013607 | 8 | 262 | 0.0 | 3.2 | 0.00 | 0.00 | 0.00 | 81 | 1012.2 |
| 20260506013106 | 8 | 28 | 0.0 | 3.2 | 0.00 | 0.00 | 0.00 | 81 | 1012.2 |
| 20260506012605 | 8 | 219 | 0.0 | 4.8 | 0.00 | 0.00 | 0.00 | 81 | 1012.2 |
| 20260506012104 | 9 | 219 | 1.6 | 4.8 | 0.00 | 0.00 | 0.00 | 80 | 1012.2 |
| 20260506011603 | 9 | 18 | 0.0 | 4.8 | 0.00 | 0.00 | 0.00 | 80 | 1012.2 |
| 20260506011104 | 9 | 319 | 1.6 | 6.4 | 0.00 | 0.00 | 0.00 | 80 | 1012.2 |
| 20260506010604 | 9 | 254 | 1.6 | 6.4 | 0.00 | 0.00 | 0.00 | 80 | 1012.2 |
| 20260506010106 | 9 | 129 | 0.0 | 4.8 | 0.00 | 0.00 | 0.00 | 80 | 1012.1 |
| 20260506005605 | 9 | 180 | 0.0 | 4.8 | 0.00 | 0.00 | 0.00 | 80 | 1012.2 |
| 20260506005346 | 9 | 12 | 1.6 | 4.8 | 0.00 | 0.00 | 0.00 | 80 | 1012.2 |
| 20260506004604 | 9 | 242 | 1.6 | 3.2 | 0.00 | 0.00 | 0.00 | 81 | 1012.2 |
| 20260506004104 | 9 | 225 | 1.6 | 4.8 | 0.00 | 0.00 | 0.00 | 81 | 1012.2 |
| 20260506003607 | 9 | 183 | 1.6 | 4.8 | 0.00 | 0.00 | 0.00 | 81 | 1012.2 |
| 20260506003106 | 9 | 220 | 0.0 | 4.8 | 0.00 | 0.00 | 0.00 | 82 | 1012.3 |
| 20260506002840 | 9 | 232 | 0.0 | 4.8 | 0.00 | 0.00 | 0.00 | 82 | 1012.4 |
| 20260506002103 | 9 | 336 | 0.0 | 4.8 | 0.00 | 0.00 | 0.00 | 83 | 1012.4 |
| 20260506001603 | 9 | 211 | 0.0 | 3.2 | 0.00 | 0.00 | 0.00 | 83 | 1012.3 |
| 20260506001342 | 10 | 255 | 1.6 | 4.8 | 0.00 | 0.00 | 0.00 | 83 | 1012.4 |
| 20260506000605 | 10 | 234 | 1.6 | 4.8 | 0.00 | 0.00 | 0.00 | 83 | 1012.3 |
| 20260506000105 | 10 | 244 | 0.0 | 4.8 | 0.00 | 0.00 | 0.00 | 83 | 1012.3 |
| 20260505235603 | 10 | 322 | 0.0 | 4.8 | 0.00 | 0.00 | 0.00 | 83 | 1012.3 |
| 20260505235104 | 10 | 300 | 0.0 | 3.2 | 0.00 | 0.00 | 0.00 | 83 | 1012.3 |
| 20260505234602 | 10 | 277 | 0.0 | 3.2 | 0.00 | 0.00 | 0.00 | 83 | 1012.3 |
| 20260505234103 | 10 | 271 | 0.0 | 3.2 | 0.00 | 0.00 | 0.00 | 83 | 1012.3 |
| 20260505233604 | 10 | 342 | 0.0 | 1.6 | 0.00 | 0.00 | 0.00 | 83 | 1012.3 |
| 20260505233103 | 10 | 347 | 0.0 | 0.0 | 0.00 | 0.00 | 0.00 | 82 | 1012.4 |
| 20260505232603 | 10 | 350 | 0.0 | 1.6 | 0.00 | 0.00 | 0.00 | 82 | 1012.3 |
| 20260505232102 | 10 | 217 | 0.0 | 1.6 | 0.00 | 0.00 | 0.00 | 82 | 1012.4 |
| 20260505231604 | 10 | 217 | 0.0 | 4.8 | 0.00 | 0.00 | 0.00 | 82 | 1012.4 |
| 20260505231104 | 10 | 217 | 0.0 | 4.8 | 0.00 | 0.00 | 0.00 | 81 | 1012.4 |
| 20260505230603 | 10 | 217 | 0.0 | 3.2 | 0.00 | 0.00 | 0.00 | 81 | 1012.5 |
| 20260505225605 | 10 | 340 | 0.0 | 3.2 | 0.00 | 0.00 | 0.00 | 81 | 1012.5 |
| 20260505225105 | 10 | 355 | 0.0 | 3.2 | 0.00 | 0.00 | 0.00 | 80 | 1012.5 |
| 20260505224604 | 10 | 0 | 0.0 | 3.2 | 0.00 | 0.00 | 0.00 | 80 | 1012.5 |
| 20260505224102 | 10 | 224 | 0.0 | 3.2 | 0.00 | 0.00 | 0.00 | 80 | 1012.5 |
| 20260505223602 | 10 | 9 | 0.0 | 3.2 | 0.00 | 0.00 | 0.00 | 79 | 1012.5 |
| 20260505223101 | 10 | 355 | 0.0 | 4.8 | 0.00 | 0.00 | 0.00 | 79 | 1012.5 |
| 20260505222623 | 10 | 191 | 1.6 | 4.8 | 0.00 | 0.00 | 0.00 | 78 | 1012.5 |
| 20260505222616 | 10 | 293 | 0.0 | 4.8 | 0.00 | 0.00 | 0.00 | 79 | 1012.6 |
| 20260505221602 | 10 | 288 | 0.0 | 4.8 | 0.00 | 0.00 | 0.00 | 78 | 1012.5 |
| 20260505221343 | 10 | 9 | 0.0 | 3.2 | 0.00 | 0.00 | 0.00 | 78 | 1012.6 |
| 20260505220604 | 10 | 26 | 1.6 | 3.2 | 0.00 | 0.00 | 0.00 | 78 | 1012.5 |
| 20260505215603 | 10 | 26 | 1.6 | 4.8 | 0.00 | 0.00 | 0.00 | 78 | 1012.5 |
| 20260505215105 | 10 | 265 | 0.0 | 3.2 | 0.00 | 0.00 | 0.00 | 78 | 1012.4 |
| 20260505214843 | 10 | 16 | 0.0 | 4.8 | 0.00 | 0.00 | 0.00 | 77 | 1012.4 |
| 20260505214102 | 11 | 288 | 0.0 | 4.8 | 0.00 | 0.00 | 0.00 | 77 | 1012.4 |
| 20260505213602 | 11 | 197 | 1.6 | 6.4 | 0.00 | 0.00 | 0.00 | 77 | 1012.3 |
| 20260505213104 | 11 | 37 | 1.6 | 6.4 | 0.00 | 0.00 | 0.00 | 76 | 1012.3 |
| 20260505212841 | 11 | 14 | 1.6 | 3.2 | 0.00 | 0.00 | 0.00 | 76 | 1012.3 |
| 20260505212343 | 11 | 327 | 1.6 | 3.2 | 0.00 | 0.00 | 0.00 | 75 | 1012.2 |
| 20260505211846 | 11 | 55 | 0.0 | 3.2 | 0.00 | 0.00 | 0.00 | 74 | 1012.3 |
| 20260505211103 | 11 | 92 | 1.6 | 4.8 | 0.00 | 0.00 | 0.00 | 74 | 1012.3 |
| 20260505210602 | 11 | 13 | 1.6 | 6.4 | 0.00 | 0.00 | 0.00 | 73 | 1012.3 |
| 20260505210104 | 11 | 286 | 1.6 | 6.4 | 0.00 | 0.00 | 0.00 | 73 | 1012.3 |
| 20260505205602 | 11 | 290 | 1.6 | 8.0 | 0.00 | 0.00 | 0.00 | 72 | 1012.2 |
| 20260505205102 | 11 | 236 | 1.6 | 8.0 | 0.00 | 0.00 | 0.00 | 72 | 1012.3 |
| 20260505204602 | 12 | 279 | 0.0 | 4.8 | 0.00 | 0.00 | 0.00 | 72 | 1012.2 |
| 20260505204105 | 12 | 216 | 0.0 | 4.8 | 0.00 | 0.00 | 0.00 | 73 | 1012.2 |
| 20260505203601 | 12 | 32 | 1.6 | 4.8 | 0.00 | 0.00 | 0.00 | 73 | 1012.2 |
| 20260505203101 | 12 | 236 | 0.0 | 4.8 | 0.00 | 0.00 | 0.00 | 75 | 1012.1 |
| 20260505202625 | 12 | 351 | 1.6 | 9.7 | 0.00 | 0.00 | 0.00 | 77 | 1012.0 |
| 20260505202617 | 12 | 61 | 0.0 | 1.6 | 0.00 | 0.00 | 0.00 | 77 | 1012.0 |
| 20260505201603 | 12 | 350 | 1.6 | 9.7 | 0.00 | 0.00 | 0.00 | 77 | 1011.9 |
| 20260505201102 | 12 | 155 | 0.0 | 6.4 | 0.00 | 0.00 | 0.00 | 76 | 1011.8 |
| 20260505200845 | 12 | 63 | 1.6 | 8.0 | 0.00 | 0.00 | 0.00 | 76 | 1011.8 |
| 20260505200344 | 12 | 46 | 1.6 | 8.0 | 0.00 | 0.00 | 0.00 | 75 | 1011.7 |
| 20260505195602 | 12 | 0 | 1.6 | 6.4 | 0.00 | 0.00 | 0.00 | 75 | 1011.7 |
| 20260505195341 | 12 | 20 | 1.6 | 6.4 | 0.00 | 0.00 | 0.00 | 75 | 1011.6 |
| 20260505194604 | 12 | 50 | 0.0 | 6.4 | 0.00 | 0.00 | 0.00 | 74 | 1011.6 |
| 20260505194102 | 12 | 64 | 1.6 | 6.4 | 0.00 | 0.00 | 0.00 | 74 | 1011.5 |
| 20260505193605 | 12 | 304 | 1.6 | 6.4 | 0.00 | 0.00 | 0.00 | 73 | 1011.4 |
| 20260505193103 | 13 | 29 | 1.6 | 8.0 | 0.00 | 0.00 | 0.00 | 73 | 1011.3 |
| 20260505192603 | 13 | 72 | 1.6 | 12.9 | 0.00 | 0.00 | 0.00 | 73 | 1011.2 |
| 20260505192102 | 13 | 306 | 3.2 | 12.9 | 0.00 | 0.00 | 0.00 | 72 | 1011.2 |
| 20260505191602 | 13 | 329 | 1.6 | 8.0 | 0.00 | 0.00 | 0.00 | 72 | 1011.0 |
| 20260505191104 | 13 | 42 | 1.6 | 8.0 | 0.00 | 0.00 | 0.00 | 71 | 1010.9 |
| 20260505190604 | 13 | 355 | 1.6 | 4.8 | 0.00 | 0.00 | 0.00 | 70 | 1010.9 |
| 20260505185604 | 13 | 5 | 1.6 | 12.9 | 0.00 | 0.00 | 0.00 | 69 | 1010.9 |
| 20260505185104 | 13 | 300 | 1.6 | 6.4 | 0.00 | 0.00 | 0.00 | 69 | 1010.9 |
| 20260505184603 | 13 | 205 | 1.6 | 6.4 | 0.00 | 0.00 | 0.00 | 69 | 1010.8 |
| 20260505184104 | 13 | 186 | 1.6 | 4.8 | 0.00 | 0.00 | 0.00 | 69 | 1010.8 |
| 20260505183602 | 13 | 249 | 1.6 | 4.8 | 0.00 | 0.00 | 0.00 | 69 | 1010.8 |
| 20260505183102 | 13 | 212 | 1.6 | 4.8 | 0.00 | 0.00 | 0.00 | 68 | 1010.8 |
| 20260505182840 | 13 | 221 | 1.6 | 4.8 | 0.00 | 0.00 | 0.00 | 68 | 1010.8 |
| 20260505182106 | 13 | 279 | 1.6 | 4.8 | 0.00 | 0.00 | 0.00 | 68 | 1010.8 |
| 20260505181842 | 13 | 286 | 1.6 | 8.0 | 0.00 | 0.00 | 0.00 | 68 | 1010.7 |
| 20260505181103 | 14 | 5 | 1.6 | 8.0 | 0.00 | 0.00 | 0.00 | 67 | 1010.7 |
| 20260505180557 | 14 | 15 | 1.6 | 8.0 | 0.00 | 0.00 | 0.00 | 67 | 1010.8 |
| 20260505180051 | 14 | 310 | 1.6 | 6.4 | 0.00 | 0.00 | 0.00 | 68 | 1010.6 |
| 20260505175554 | 14 | 355 | 1.6 | 4.8 | 0.00 | 0.00 | 0.00 | 68 | 1010.7 |
| 20260505175049 | 15 | 257 | 1.6 | 4.8 | 0.00 | 0.00 | 0.00 | 68 | 1010.7 |
| 20260505174550 | 15 | 246 | 1.6 | 8.0 | 0.00 | 0.00 | 0.00 | 68 | 1010.7 |
| 20260505174048 | 15 | 30 | 1.6 | 9.7 | 0.00 | 0.00 | 0.00 | 67 | 1010.7 |
| 20260505173549 | 15 | 203 | 1.6 | 9.7 | 0.00 | 0.00 | 0.00 | 67 | 1010.6 |
| 20260505173048 | 15 | 346 | 0.0 | 4.8 | 0.00 | 0.00 | 0.00 | 66 | 1010.7 |
| 20260505172550 | 15 | 256 | 0.0 | 3.2 | 0.00 | 0.00 | 0.00 | 63 | 1010.6 |
| 20260505172049 | 15 | 254 | 0.0 | 3.2 | 0.00 | 0.00 | 0.00 | 63 | 1010.6 |
| 20260505171550 | 15 | 302 | 0.0 | 3.2 | 0.00 | 0.00 | 0.00 | 62 | 1010.6 |
| 20260505171049 | 15 | 234 | 0.0 | 3.2 | 0.00 | 0.00 | 0.00 | 62 | 1010.6 |
| 20260505170549 | 15 | 81 | 0.0 | 3.2 | 0.00 | 0.00 | 0.00 | 62 | 1010.6 |
| 20260505170050 | 15 | 80 | 0.0 | 3.2 | 0.00 | 0.00 | 0.00 | 62 | 1010.6 |
| 20260505165544 | 15 | 264 | 0.0 | 3.2 | 0.00 | 0.00 | 0.00 | 61 | 1010.7 |
| 20260505165045 | 16 | 257 | 0.0 | 1.6 | 0.00 | 0.00 | 0.00 | 61 | 1010.7 |
| 20260505164543 | 16 | 260 | 0.0 | 1.6 | 0.00 | 0.00 | 0.00 | 60 | 1010.6 |
| 20260505164047 | 16 | 259 | 0.0 | 3.2 | 0.00 | 0.00 | 0.00 | 60 | 1010.6 |
| 20260505163545 | 16 | 165 | 0.0 | 3.2 | 0.00 | 0.00 | 0.00 | 60 | 1010.7 |
| 20260505163323 | 16 | 240 | 0.0 | 3.2 | 0.00 | 0.00 | 0.00 | 59 | 1010.7 |
| 20260505162542 | 16 | 263 | 0.0 | 3.2 | 0.00 | 0.00 | 0.00 | 58 | 1010.7 |
| 20260505162324 | 16 | 216 | 0.0 | 3.2 | 0.00 | 0.00 | 0.00 | 57 | 1010.6 |
| 20260505161544 | 16 | 57 | 0.0 | 3.2 | 0.00 | 0.00 | 0.00 | 58 | 1010.6 |
| 20260505161043 | 16 | 69 | 0.0 | 3.2 | 0.00 | 0.00 | 0.00 | 58 | 1010.6 |
| 20260505160543 | 16 | 248 | 0.0 | 3.2 | 0.00 | 0.00 | 0.00 | 57 | 1010.6 |
| 20260505153043 | 17 | 14 | 0.0 | 4.8 | 0.00 | 0.00 | 0.00 | 55 | 1010.7 |
| 20260505152542 | 17 | 333 | 0.0 | 3.2 | 0.00 | 0.00 | 0.00 | 54 | 1010.7 |
| 20260505152042 | 17 | 296 | 0.0 | 4.8 | 0.00 | 0.00 | 0.00 | 53 | 1010.7 |
| 20260505151543 | 17 | 302 | 0.0 | 4.8 | 0.00 | 0.00 | 0.00 | 53 | 1010.7 |
| 20260505151042 | 17 | 175 | 0.0 | 3.2 | 0.00 | 0.00 | 0.00 | 53 | 1010.7 |
| 20260505150544 | 17 | 164 | 0.0 | 6.4 | 0.00 | 0.00 | 0.00 | 52 | 1010.8 |
| 20260505150323 | 17 | 285 | 1.6 | 6.4 | 0.00 | 0.00 | 0.00 | 51 | 1010.8 |